Regional Weather Roundup
Issued by NWS Sioux Falls, SD

Home | Current Version | Previous Version | Graphics & Text | Print | Product List | Glossary Off
Versions: 1 2 3 4 5 6 7 8 9 10 11 12 13 14 15 16 17 18 19 20 21 22 23 24 25 26 27 28 29 30 31 32 33 34 35 36 37 38 39 40 41 42 43 44 45 46 47 48 49 50

000
ASUS43 KFSD 300902
RWRFSD

WEATHER ROUNDUP FOR SE SOUTH DAKOTA/SW MINNESOTA/NW IOWA
NATIONAL WEATHER SERVICE SIOUX FALLS SD
400 AM CDT SUN AUG 30 2015

NOTE: "FAIR" INDICATES FEW OR NO CLOUDS BELOW 12,000 FEET WITH NO
SIGNIFICANT WEATHER AND OR OBSTRUCTIONS TO VISIBILITY.


SDZ038>040-050-052>070-301000-
SOUTHEAST SOUTH DAKOTA

CITY           SKY/WX    TMP DP  RH WIND       PRES   REMARKS
BROOKINGS      CLOUDY    63  59  88 S10       29.98S
CHAMBERLAIN    NOT AVBL
HURON          CLEAR     65  64  97 S12       29.89S
MADISON        CLOUDY    61  61 100 S12       29.97S
MITCHELL       CLEAR     66  64  93 S10       29.93S
SIOUX FALLS    CLOUDY    62  60  93 S9        29.99S
WINNER         FAIR      72  58  61 S21G26    29.90S
YANKTON        CLOUDY    64  63  94 S9        29.96S
$$

MNZ071-072-080-081-089-090-097-098-301000-
SOUTHWEST MINNESOTA

CITY           SKY/WX    TMP DP  RH WIND       PRES   REMARKS
FAIRMONT       CLOUDY    63  55  77 S9        30.01S
JACKSON        CLOUDY    61  61 100 S9        30.02S FOG
LUVERNE        CLOUDY    63  61  94 S8        30.01S FOG
MARSHALL       PTCLDY    63  57  82 S7G16     29.97R
MONTEVIDEO     CLEAR     61  61 100 S7        29.95S
PIPESTONE      CLOUDY    63  61  94 SW10G16   30.00R FOG
REDWOOD FALLS  CLOUDY    63  61  93 S9        29.97S
TRACY          PTCLDY    63  61  94 S15G24    29.97R
WINDOM         CLOUDY    61  61 100 S14       30.00S
WORTHINGTON    CLOUDY    61  57  88 SW14      30.01S
$$

IAZ001>003-012>014-020>022-031-032-NEZ013-014-SDZ071-301000-
NORTHWEST IOWA

CITY           SKY/WX    TMP DP  RH WIND       PRES   REMARKS
DENISON        CLOUDY    64  63  94 SE3       30.02S
ESTHERVILLE    CLOUDY    61  60  97 S13       30.02S
SIOUX CITY     NOT AVBL
SPENCER        CLOUDY    62  59  90 S10       30.03S
$$

ABBREVIATIONS USED IN REMARKS
   TC - TEMPERATURE IN CELSIUS
  WCI - WIND CHILL INDEX
   HX - HEAT INDEX
  VSB - VISIBILITY




USA.gov is the U.S. government's official web portal to all federal, state and local government web resources and services.